Time,TemperatureF,DewpointF,PressureIn,WindDirection,WindDirectionDegrees,WindSpeedMPH,WindSpeedGustMPH,Humidity,HourlyPrecipIn,Conditions,Clouds,dailyrainin,SoftwareType,DateUTC
2013-01-23 00:02:00,51.6,42.2,29.57,NE,45,0.0,0.0,70,0.00,,,0.00,WUHU216HW,2013-01-23 06:02:00,
2013-01-23 00:07:00,51.4,42.4,29.57,NE,45,0.0,0.0,71,0.00,,,0.00,WUHU216HW,2013-01-23 06:07:00,
2013-01-23 00:12:00,51.4,42.4,29.57,NE,45,0.0,0.0,71,0.00,,,0.00,WUHU216HW,2013-01-23 06:12:00,
2013-01-23 00:17:00,51.4,42.7,29.57,NE,45,0.0,0.0,72,0.00,,,0.00,WUHU216HW,2013-01-23 06:17:00,
2013-01-23 00:22:00,51.4,42.7,29.57,NE,45,0.0,0.0,72,0.00,,,0.00,WUHU216HW,2013-01-23 06:22:00,
2013-01-23 00:27:00,51.4,43.1,29.57,NE,45,0.0,0.0,73,0.00,,,0.00,WUHU216HW,2013-01-23 06:27:00,
2013-01-23 00:32:00,51.4,42.7,29.57,NE,45,0.0,0.0,72,0.00,,,0.00,WUHU216HW,2013-01-23 06:32:00,
2013-01-23 00:37:00,51.4,43.1,29.57,NE,45,0.0,0.0,73,0.00,,,0.00,WUHU216HW,2013-01-23 06:37:00,
2013-01-23 00:42:00,51.4,43.1,29.57,ENE,68,0.0,0.0,73,0.00,,,0.00,WUHU216HW,2013-01-23 06:42:00,
2013-01-23 00:47:00,51.4,43.4,29.57,SE,135,0.0,0.0,74,0.00,,,0.00,WUHU216HW,2013-01-23 06:47:00,
2013-01-23 00:52:00,51.6,43.6,29.58,SE,135,0.0,0.0,74,0.00,,,0.00,WUHU216HW,2013-01-23 06:52:00,
2013-01-23 00:57:00,51.6,43.9,29.57,NE,45,0.0,0.0,75,0.00,,,0.00,WUHU216HW,2013-01-23 06:57:00,
2013-01-23 01:02:00,51.4,43.4,29.57,NE,45,0.0,0.0,74,0.00,,,0.00,WUHU216HW,2013-01-23 07:02:00,
2013-01-23 01:07:00,51.4,43.4,29.58,ENE,68,0.0,0.0,74,0.00,,,0.00,WUHU216HW,2013-01-23 07:07:00,
2013-01-23 01:12:00,51.4,43.7,29.58,ENE,68,0.0,0.0,75,0.00,,,0.00,WUHU216HW,2013-01-23 07:12:00,
2013-01-23 01:17:00,51.4,43.7,29.58,ESE,113,0.0,0.0,75,0.00,,,0.00,WUHU216HW,2013-01-23 07:17:00,
2013-01-23 01:22:00,51.4,43.7,29.57,ESE,113,0.0,0.0,75,0.00,,,0.00,WUHU216HW,2013-01-23 07:22:00,
2013-01-23 01:27:00,51.4,44.1,29.57,ESE,113,0.0,0.0,76,0.00,,,0.00,WUHU216HW,2013-01-23 07:27:00,
2013-01-23 01:32:00,51.4,44.1,29.57,ESE,113,0.0,0.0,76,0.00,,,0.00,WUHU216HW,2013-01-23 07:32:00,
2013-01-23 01:37:00,51.6,44.3,29.57,NNE,23,0.0,0.0,76,0.00,,,0.00,WUHU216HW,2013-01-23 07:37:00,
2013-01-23 01:42:00,51.6,44.3,29.57,NE,45,0.0,0.0,76,0.00,,,0.00,WUHU216HW,2013-01-23 07:42:00,
2013-01-23 01:47:00,51.4,44.4,29.57,ENE,68,0.0,0.0,77,0.00,,,0.00,WUHU216HW,2013-01-23 07:47:00,
2013-01-23 01:52:00,51.6,44.6,29.57,NE,45,0.0,0.0,77,0.00,,,0.00,WUHU216HW,2013-01-23 07:52:00,
2013-01-23 01:58:00,51.6,44.6,29.57,NE,45,0.0,0.0,77,0.00,,,0.00,WUHU216HW,2013-01-23 07:58:00,
2013-01-23 02:07:00,51.6,44.9,29.57,East,90,0.0,0.0,78,0.00,,,0.00,WUHU216HW,2013-01-23 08:07:00,
2013-01-23 02:12:00,51.6,44.9,29.57,NE,45,0.0,0.0,78,0.00,,,0.00,WUHU216HW,2013-01-23 08:12:00,
2013-01-23 02:18:00,51.6,44.9,29.57,NE,45,0.0,0.0,78,0.00,,,0.00,WUHU216HW,2013-01-23 08:18:00,
2013-01-23 02:23:00,51.4,44.8,29.57,ENE,68,0.0,0.0,78,0.00,,,0.00,WUHU216HW,2013-01-23 08:23:00,
2013-01-23 02:28:00,51.2,44.6,29.57,NE,45,0.0,0.0,78,0.00,,,0.00,WUHU216HW,2013-01-23 08:28:00,
2013-01-23 02:33:00,51.2,44.6,29.57,ENE,68,0.0,0.0,78,0.00,,,0.00,WUHU216HW,2013-01-23 08:33:00,
2013-01-23 02:38:00,51.0,44.4,29.57,NE,45,0.0,0.0,78,0.00,,,0.00,WUHU216HW,2013-01-23 08:38:00,
2013-01-23 02:43:00,50.9,43.9,29.58,NE,45,0.0,0.0,77,0.00,,,0.00,WUHU216HW,2013-01-23 08:43:00,
2013-01-23 02:48:00,50.9,44.2,29.57,NE,45,0.0,0.0,78,0.00,,,0.00,WUHU216HW,2013-01-23 08:48:00,
2013-01-23 02:53:00,50.9,44.2,29.57,ENE,68,0.0,0.0,78,0.00,,,0.00,WUHU216HW,2013-01-23 08:53:00,
2013-01-23 02:58:00,50.7,44.4,29.57,East,90,2.2,2.2,79,0.00,,,0.00,WUHU216HW,2013-01-23 08:58:00,
2013-01-23 03:14:00,50.5,44.6,29.57,ENE,68,0.0,2.2,80,0.00,,,0.00,WUHU216HW,2013-01-23 09:14:00,
2013-01-23 03:19:00,50.5,44.6,29.57,ESE,113,0.8,2.2,80,0.00,,,0.00,WUHU216HW,2013-01-23 09:19:00,
2013-01-23 03:24:00,50.5,44.6,29.57,NE,45,0.0,0.8,80,0.00,,,0.00,WUHU216HW,2013-01-23 09:24:00,
2013-01-23 03:29:00,50.5,44.6,29.57,NE,45,0.0,0.8,80,0.00,,,0.00,WUHU216HW,2013-01-23 09:29:00,
2013-01-23 03:34:00,50.5,44.6,29.57,NNE,23,0.0,0.0,80,0.00,,,0.00,WUHU216HW,2013-01-23 09:34:00,
2013-01-23 03:39:00,50.5,44.6,29.58,North,0,0.0,0.0,80,0.00,,,0.00,WUHU216HW,2013-01-23 09:39:00,
2013-01-23 03:44:00,50.5,44.6,29.58,NE,45,0.0,0.0,80,0.00,,,0.00,WUHU216HW,2013-01-23 09:44:00,
2013-01-23 03:49:00,50.5,44.6,29.57,NNE,23,0.0,0.0,80,0.00,,,0.00,WUHU216HW,2013-01-23 09:49:00,
2013-01-23 03:54:00,50.5,44.6,29.57,NW,315,0.0,0.0,80,0.00,,,0.00,WUHU216HW,2013-01-23 09:54:00,
2013-01-23 03:59:00,50.5,44.6,29.57,NE,45,0.0,0.0,80,0.00,,,0.00,WUHU216HW,2013-01-23 09:59:00,
2013-01-23 04:12:00,50.3,44.7,29.57,North,0,0.0,0.0,81,0.00,,,0.00,WUHU216HW,2013-01-23 10:12:00,
2013-01-23 04:17:00,50.3,44.7,29.57,NE,45,0.0,0.0,81,0.00,,,0.00,WUHU216HW,2013-01-23 10:17:00,
2013-01-23 04:22:00,50.3,44.7,29.57,NE,45,0.0,0.0,81,0.00,,,0.00,WUHU216HW,2013-01-23 10:22:00,
2013-01-23 04:27:00,50.3,44.7,29.57,NE,45,0.0,0.0,81,0.00,,,0.00,WUHU216HW,2013-01-23 10:27:00,
2013-01-23 04:32:00,50.3,44.7,29.56,NE,45,0.0,0.0,81,0.00,,,0.00,WUHU216HW,2013-01-23 10:32:00,
2013-01-23 04:37:00,50.3,44.7,29.56,NNE,23,0.0,0.0,81,0.00,,,0.00,WUHU216HW,2013-01-23 10:37:00,
2013-01-23 04:42:00,50.3,44.7,29.57,NNE,23,0.0,0.0,81,0.00,,,0.00,WUHU216HW,2013-01-23 10:42:00,
2013-01-23 04:47:00,50.1,45.0,29.57,NNE,23,0.0,0.0,82,0.00,,,0.00,WUHU216HW,2013-01-23 10:47:00,
2013-01-23 04:52:00,50.1,44.8,29.57,North,0,0.0,0.0,82,0.00,,,0.00,WUHU216HW,2013-01-23 10:52:00,
2013-01-23 04:57:00,50.1,44.5,29.57,North,0,0.0,0.0,81,0.00,,,0.00,WUHU216HW,2013-01-23 10:57:00,
2013-01-23 05:02:00,50.1,44.5,29.57,North,0,0.0,0.0,81,0.00,,,0.00,WUHU216HW,2013-01-23 11:02:00,
2013-01-23 05:07:00,49.8,44.1,29.57,North,0,0.0,0.0,81,0.00,,,0.00,WUHU216HW,2013-01-23 11:07:00,
2013-01-23 05:12:00,49.8,44.1,29.57,NE,45,0.0,0.0,81,0.00,,,0.00,WUHU216HW,2013-01-23 11:12:00,
2013-01-23 05:17:00,49.8,44.4,29.58,NNE,23,0.0,0.0,82,0.00,,,0.00,WUHU216HW,2013-01-23 11:17:00,
2013-01-23 05:22:00,49.6,44.3,29.58,NNE,23,0.0,0.0,82,0.00,,,0.00,WUHU216HW,2013-01-23 11:22:00,
2013-01-23 05:27:00,49.6,44.3,29.57,NNE,23,0.0,0.0,82,0.00,,,0.00,WUHU216HW,2013-01-23 11:27:00,
2013-01-23 05:32:00,49.6,44.3,29.57,NNE,23,0.0,0.0,82,0.00,,,0.00,WUHU216HW,2013-01-23 11:32:00,
2013-01-23 05:37:00,49.2,43.9,29.57,NNE,23,0.0,0.0,82,0.00,,,0.00,WUHU216HW,2013-01-23 11:37:00,
2013-01-23 05:42:00,49.2,43.9,29.58,NNE,23,0.0,0.0,82,0.00,,,0.00,WUHU216HW,2013-01-23 11:42:00,
2013-01-23 05:47:00,49.1,43.7,29.58,NE,45,0.0,0.0,82,0.00,,,0.00,WUHU216HW,2013-01-23 11:47:00,
2013-01-23 05:52:00,48.9,43.6,29.58,ENE,68,0.0,0.0,82,0.00,,,0.00,WUHU216HW,2013-01-23 11:52:00,
2013-01-23 05:57:00,48.9,43.9,29.58,NE,45,0.0,0.0,83,0.00,,,0.00,WUHU216HW,2013-01-23 11:57:00,
2013-01-23 06:03:00,48.9,43.9,29.57,WSW,248,0.0,0.0,83,0.00,,,0.00,WUHU216HW,2013-01-23 12:03:00,
2013-01-23 06:08:00,48.9,43.9,29.58,ENE,68,0.0,0.0,83,0.00,,,0.00,WUHU216HW,2013-01-23 12:08:00,
2013-01-23 06:13:00,48.9,43.9,29.58,NE,45,0.0,0.0,83,0.00,,,0.00,WUHU216HW,2013-01-23 12:13:00,
2013-01-23 06:18:00,48.9,44.2,29.58,NE,45,0.0,0.0,84,0.00,,,0.00,WUHU216HW,2013-01-23 12:18:00,
2013-01-23 06:23:00,48.9,44.2,29.58,ENE,68,0.0,0.0,84,0.00,,,0.00,WUHU216HW,2013-01-23 12:23:00,
2013-01-23 06:28:00,48.9,44.2,29.59,NNE,23,0.0,0.0,84,0.00,,,0.00,WUHU216HW,2013-01-23 12:28:00,
2013-01-23 06:33:00,48.9,44.2,29.59,WNW,293,0.0,0.0,84,0.00,,,0.00,WUHU216HW,2013-01-23 12:33:00,
2013-01-23 06:38:00,48.9,44.2,29.59,WNW,293,0.0,0.0,84,0.00,,,0.00,WUHU216HW,2013-01-23 12:38:00,
2013-01-23 06:43:00,48.9,44.2,29.59,WNW,293,0.0,0.0,84,0.00,,,0.00,WUHU216HW,2013-01-23 12:43:00,
2013-01-23 06:48:00,48.7,44.0,29.59,West,270,0.0,0.0,84,0.00,,,0.00,WUHU216HW,2013-01-23 12:48:00,
2013-01-23 06:53:00,48.7,44.0,29.59,West,270,0.0,0.0,84,0.00,,,0.00,WUHU216HW,2013-01-23 12:53:00,
2013-01-23 06:58:00,48.7,44.0,29.59,West,270,0.0,0.0,84,0.00,,,0.00,WUHU216HW,2013-01-23 12:58:00,
2013-01-23 07:03:00,48.7,44.0,29.60,West,270,0.0,0.0,84,0.00,,,0.00,WUHU216HW,2013-01-23 13:03:00,
2013-01-23 07:08:00,48.7,44.0,29.59,West,270,0.0,0.0,84,0.00,,,0.00,WUHU216HW,2013-01-23 13:08:00,
2013-01-23 07:13:00,48.5,43.8,29.59,West,270,0.0,0.0,84,0.00,,,0.00,WUHU216HW,2013-01-23 13:13:00,
2013-01-23 07:18:00,48.3,43.7,29.60,West,270,0.0,0.0,84,0.00,,,0.00,WUHU216HW,2013-01-23 13:18:00,
2013-01-23 07:23:00,48.3,43.7,29.60,West,270,0.0,0.0,84,0.00,,,0.00,WUHU216HW,2013-01-23 13:23:00,
2013-01-23 07:28:00,48.2,43.5,29.60,WNW,293,0.0,0.0,84,0.00,,,0.00,WUHU216HW,2013-01-23 13:28:00,
2013-01-23 07:33:00,48.2,43.5,29.61,NE,45,0.0,0.0,84,0.00,,,0.00,WUHU216HW,2013-01-23 13:33:00,
2013-01-23 07:38:00,48.0,43.3,29.61,ENE,68,0.0,0.0,84,0.00,,,0.00,WUHU216HW,2013-01-23 13:38:00,
2013-01-23 07:43:00,48.0,43.3,29.60,ENE,68,0.0,0.0,84,0.00,,,0.00,WUHU216HW,2013-01-23 13:43:00,
2013-01-23 07:48:00,48.0,43.3,29.60,ENE,68,0.0,0.0,84,0.00,,,0.00,WUHU216HW,2013-01-23 13:48:00,
2013-01-23 07:53:00,48.0,43.3,29.61,ENE,68,0.0,0.0,84,0.00,,,0.00,WUHU216HW,2013-01-23 13:53:00,
2013-01-23 07:58:00,48.2,43.5,29.61,ENE,68,0.0,0.0,84,0.00,,,0.00,WUHU216HW,2013-01-23 13:58:00,
2013-01-23 08:03:00,48.5,43.8,29.61,ENE,68,0.0,0.0,84,0.00,,,0.00,WUHU216HW,2013-01-23 14:03:00,
2013-01-23 08:08:00,48.7,44.0,29.61,NE,45,0.0,0.0,84,0.00,,,0.00,WUHU216HW,2013-01-23 14:08:00,
2013-01-23 08:13:00,49.2,44.9,29.61,NE,45,0.0,0.0,85,0.00,,,0.00,WUHU216HW,2013-01-23 14:13:00,
2013-01-23 08:18:00,49.8,45.7,29.61,East,90,0.0,0.0,86,0.00,,,0.00,WUHU216HW,2013-01-23 14:18:00,
2013-01-23 08:23:00,50.1,46.0,29.61,ESE,113,0.0,0.0,86,0.00,,,0.00,WUHU216HW,2013-01-23 14:23:00,
2013-01-23 08:28:00,50.3,45.9,29.62,ENE,68,0.0,0.0,85,0.00,,,0.00,WUHU216HW,2013-01-23 14:28:00,
2013-01-23 08:33:00,50.5,46.1,29.62,ENE,68,0.0,1.5,85,0.00,,,0.00,WUHU216HW,2013-01-23 14:33:00,
2013-01-23 08:38:00,50.5,46.4,29.62,ENE,68,2.4,2.4,86,0.00,,,0.00,WUHU216HW,2013-01-23 14:38:00,
2013-01-23 08:43:00,50.9,47.1,29.62,ENE,68,0.0,3.5,87,0.00,,,0.00,WUHU216HW,2013-01-23 14:43:00,
2013-01-23 08:48:00,51.2,47.4,29.62,ESE,113,3.1,3.5,87,0.00,,,0.00,WUHU216HW,2013-01-23 14:48:00,
2013-01-23 08:53:00,51.6,47.8,29.62,East,90,1.7,3.1,87,0.00,,,0.00,WUHU216HW,2013-01-23 14:53:00,
2013-01-23 08:58:00,52.1,48.3,29.62,East,90,3.5,3.5,87,0.00,,,0.00,WUHU216HW,2013-01-23 14:58:00,
2013-01-23 09:03:00,52.3,48.5,29.62,ENE,68,2.9,3.5,87,0.00,,,0.00,WUHU216HW,2013-01-23 15:03:00,
2013-01-23 09:08:00,52.7,48.9,29.62,East,90,1.3,3.5,87,0.00,,,0.00,WUHU216HW,2013-01-23 15:08:00,
2013-01-23 09:13:00,53.2,49.4,29.62,East,90,2.2,2.9,87,0.00,,,0.00,WUHU216HW,2013-01-23 15:13:00,
2013-01-23 09:18:00,53.7,49.9,29.63,ENE,68,2.6,2.9,87,0.00,,,0.00,WUHU216HW,2013-01-23 15:18:00,
2013-01-23 09:23:00,53.9,49.8,29.63,North,0,2.2,2.6,86,0.00,,,0.00,WUHU216HW,2013-01-23 15:23:00,
2013-01-23 09:28:00,54.5,50.3,29.63,East,90,3.1,3.1,86,0.00,,,0.00,WUHU216HW,2013-01-23 15:28:00,
2013-01-23 09:33:00,54.8,50.3,29.63,East,90,4.4,4.4,85,0.00,,,0.00,WUHU216HW,2013-01-23 15:33:00,
2013-01-23 09:38:00,55.2,50.7,29.63,East,90,3.1,4.4,85,0.00,,,0.00,WUHU216HW,2013-01-23 15:38:00,
2013-01-23 09:43:00,55.5,51.0,29.63,East,90,2.2,4.9,85,0.00,,,0.00,WUHU216HW,2013-01-23 15:43:00,
2013-01-23 09:48:00,55.7,50.9,29.63,ENE,68,2.0,4.9,84,0.00,,,0.00,WUHU216HW,2013-01-23 15:48:00,
2013-01-23 09:53:00,56.1,51.2,29.63,East,90,2.4,3.1,84,0.00,,,0.00,WUHU216HW,2013-01-23 15:53:00,
2013-01-23 09:58:00,56.4,51.3,29.63,East,90,3.3,4.0,83,0.00,,,0.00,WUHU216HW,2013-01-23 15:58:00,
2013-01-23 10:03:00,56.8,51.6,29.64,ENE,68,3.1,4.0,83,0.00,,,0.00,WUHU216HW,2013-01-23 16:03:00,
2013-01-23 10:08:00,57.0,51.5,29.64,East,90,2.6,3.5,82,0.00,,,0.00,WUHU216HW,2013-01-23 16:08:00,
2013-01-23 10:13:00,57.7,52.2,29.64,East,90,3.3,3.5,82,0.00,,,0.00,WUHU216HW,2013-01-23 16:13:00,
2013-01-23 10:18:00,58.1,52.3,29.64,ENE,68,2.9,3.3,81,0.00,,,0.00,WUHU216HW,2013-01-23 16:18:00,
2013-01-23 10:23:00,58.4,52.6,29.64,ENE,68,4.2,4.2,81,0.00,,,0.00,WUHU216HW,2013-01-23 16:23:00,
2013-01-23 10:28:00,59.0,52.8,29.64,East,90,1.5,4.2,80,0.00,,,0.00,WUHU216HW,2013-01-23 16:28:00,
2013-01-23 10:33:00,59.7,53.6,29.64,ENE,68,0.0,3.5,80,0.00,,,0.00,WUHU216HW,2013-01-23 16:33:00,
2013-01-23 10:38:00,60.0,53.6,29.64,East,90,0.0,1.5,79,0.00,,,0.00,WUHU216HW,2013-01-23 16:38:00,
2013-01-23 10:43:00,60.9,54.1,29.63,East,90,2.0,2.0,78,0.00,,,0.00,WUHU216HW,2013-01-23 16:43:00,
2013-01-23 10:48:00,61.5,54.2,29.63,ENE,68,0.0,2.0,77,0.00,,,0.00,WUHU216HW,2013-01-23 16:48:00,
2013-01-23 10:53:00,62.0,54.7,29.63,SSE,158,0.0,2.0,77,0.00,,,0.00,WUHU216HW,2013-01-23 16:53:00,
2013-01-23 10:58:00,62.9,54.8,29.64,SE,135,0.0,2.4,75,0.00,,,0.00,WUHU216HW,2013-01-23 16:58:00,
2013-01-23 11:03:00,63.5,55.4,29.63,SE,135,0.0,2.4,75,0.00,,,0.00,WUHU216HW,2013-01-23 17:03:00,
2013-01-23 11:08:00,64.0,55.5,29.63,ESE,113,0.0,0.6,74,0.00,,,0.00,WUHU216HW,2013-01-23 17:08:00,
2013-01-23 11:13:00,64.7,55.9,29.63,South,180,0.0,0.0,73,0.00,,,0.00,WUHU216HW,2013-01-23 17:13:00,
2013-01-23 11:18:00,65.1,56.2,29.62,ESE,113,2.2,2.2,73,0.00,,,0.00,WUHU216HW,2013-01-23 17:18:00,
2013-01-23 11:23:00,65.8,56.1,29.62,SSE,158,3.1,3.1,71,0.00,,,0.00,WUHU216HW,2013-01-23 17:23:00,
2013-01-23 11:28:00,66.3,55.8,29.62,SW,225,4.9,7.6,69,0.00,,,0.00,WUHU216HW,2013-01-23 17:28:00,
2013-01-23 11:33:00,66.9,55.9,29.62,East,90,0.0,7.6,68,0.00,,,0.00,WUHU216HW,2013-01-23 17:33:00,
2013-01-23 11:38:00,67.2,55.9,29.62,South,180,4.9,4.9,67,0.00,,,0.00,WUHU216HW,2013-01-23 17:38:00,
2013-01-23 11:43:00,68.0,56.0,29.61,SSE,158,3.8,4.9,66,0.00,,,0.00,WUHU216HW,2013-01-23 17:43:00,
2013-01-23 11:48:00,68.5,55.8,29.61,South,180,4.4,4.4,64,0.00,,,0.00,WUHU216HW,2013-01-23 17:48:00,
2013-01-23 11:53:00,68.7,56.0,29.61,SSE,158,2.0,4.4,64,0.00,,,0.00,WUHU216HW,2013-01-23 17:53:00,
2013-01-23 11:58:00,69.6,56.4,29.60,SSE,158,7.6,7.6,63,0.00,,,0.00,WUHU216HW,2013-01-23 17:58:00,
2013-01-23 12:03:00,69.9,56.3,29.60,SSE,158,1.5,7.6,62,0.00,,,0.00,WUHU216HW,2013-01-23 18:03:00,
2013-01-23 12:08:00,70.3,56.3,29.60,South,180,3.1,8.2,61,0.00,,,0.00,WUHU216HW,2013-01-23 18:08:00,
2013-01-23 12:13:00,70.7,56.2,29.59,SSE,158,0.0,8.2,60,0.00,,,0.00,WUHU216HW,2013-01-23 18:13:00,
2013-01-23 12:18:00,71.2,56.6,29.59,SSE,158,4.4,4.4,60,0.00,,,0.00,WUHU216HW,2013-01-23 18:18:00,
2013-01-23 12:23:00,71.4,56.3,29.58,SSE,158,5.1,6.7,59,0.00,,,0.00,WUHU216HW,2013-01-23 18:23:00,
2013-01-23 12:28:00,71.7,56.6,29.58,South,180,4.6,11.4,59,0.00,,,0.00,WUHU216HW,2013-01-23 18:28:00,
2013-01-23 12:33:00,72.1,57.0,29.57,South,180,3.1,11.4,59,0.00,,,0.00,WUHU216HW,2013-01-23 18:33:00,
2013-01-23 12:38:00,72.3,56.6,29.57,South,180,5.3,5.3,58,0.00,,,0.00,WUHU216HW,2013-01-23 18:38:00,
2013-01-23 12:43:00,72.6,56.4,29.57,SSE,158,2.2,6.4,57,0.00,,,0.00,WUHU216HW,2013-01-23 18:43:00,
2013-01-23 12:48:00,73.0,56.8,29.56,SSW,203,6.7,6.7,57,0.00,,,0.00,WUHU216HW,2013-01-23 18:48:00,
2013-01-23 12:53:00,73.2,56.4,29.56,SSW,203,6.2,6.7,56,0.00,,,0.00,WUHU216HW,2013-01-23 18:53:00,
2013-01-23 12:58:00,73.5,56.8,29.57,SSW,203,8.0,8.0,56,0.00,,,0.00,WUHU216HW,2013-01-23 18:58:00,
2013-01-23 13:03:00,73.9,56.6,29.56,SSE,158,6.2,8.0,55,0.00,,,0.00,WUHU216HW,2013-01-23 19:03:00,
2013-01-23 13:08:00,74.1,56.8,29.55,South,180,7.1,8.0,55,0.00,,,0.00,WUHU216HW,2013-01-23 19:08:00,
2013-01-23 13:13:00,74.1,56.8,29.55,SSE,158,2.0,7.1,55,0.00,,,0.00,WUHU216HW,2013-01-23 19:13:00,
2013-01-23 13:18:00,74.4,57.2,29.55,SSW,203,3.5,4.4,55,0.00,,,0.00,WUHU216HW,2013-01-23 19:18:00,
2013-01-23 13:23:00,74.6,57.3,29.54,South,180,0.8,7.3,55,0.00,,,0.00,WUHU216HW,2013-01-23 19:23:00,
2013-01-23 13:28:00,75.0,57.2,29.55,SSE,158,11.8,12.0,54,0.00,,,0.00,WUHU216HW,2013-01-23 19:28:00,
2013-01-23 13:33:00,75.0,57.2,29.54,SSE,158,0.8,12.0,54,0.00,,,0.00,WUHU216HW,2013-01-23 19:33:00,
2013-01-23 13:38:00,75.0,56.7,29.54,SSW,203,8.5,11.8,53,0.00,,,0.00,WUHU216HW,2013-01-23 19:38:00,
2013-01-23 13:43:00,74.8,56.5,29.54,SSW,203,15.8,15.8,53,0.00,,,0.00,WUHU216HW,2013-01-23 19:43:00,
2013-01-23 13:48:00,74.8,56.5,29.53,SSW,203,7.6,15.8,53,0.00,,,0.00,WUHU216HW,2013-01-23 19:48:00,
2013-01-23 13:53:00,74.8,56.5,29.54,SSW,203,9.1,15.8,53,0.00,,,0.00,WUHU216HW,2013-01-23 19:53:00,
2013-01-23 13:58:00,74.8,56.5,29.54,SSE,158,11.4,11.4,53,0.00,,,0.00,WUHU216HW,2013-01-23 19:58:00,
2013-01-23 14:03:00,74.8,56.5,29.53,South,180,3.8,11.4,53,0.00,,,0.00,WUHU216HW,2013-01-23 20:03:00,
2013-01-23 14:08:00,74.8,57.0,29.54,SSE,158,6.0,12.0,54,0.00,,,0.00,WUHU216HW,2013-01-23 20:08:00,
2013-01-23 14:13:00,74.4,56.6,29.53,SSW,203,12.0,12.0,54,0.00,,,0.00,WUHU216HW,2013-01-23 20:13:00,
2013-01-23 14:18:00,74.4,56.6,29.53,South,180,5.8,12.0,54,0.00,,,0.00,WUHU216HW,2013-01-23 20:18:00,
2013-01-23 14:23:00,74.3,56.5,29.52,SSW,203,4.2,12.0,54,0.00,,,0.00,WUHU216HW,2013-01-23 20:23:00,
2013-01-23 14:28:00,74.3,56.5,29.52,SSE,158,4.6,5.5,54,0.00,,,0.00,WUHU216HW,2013-01-23 20:28:00,
2013-01-23 14:33:00,74.3,56.5,29.52,SSW,203,6.4,6.4,54,0.00,,,0.00,WUHU216HW,2013-01-23 20:33:00,
2013-01-23 14:38:00,74.3,56.5,29.52,South,180,11.8,11.8,54,0.00,,,0.00,WUHU216HW,2013-01-23 20:38:00,
2013-01-23 14:43:00,74.3,56.5,29.52,SSW,203,6.9,11.8,54,0.00,,,0.00,WUHU216HW,2013-01-23 20:43:00,
2013-01-23 14:48:00,74.1,56.3,29.52,South,180,3.1,11.8,54,0.00,,,0.00,WUHU216HW,2013-01-23 20:48:00,
2013-01-23 14:53:00,74.3,56.5,29.51,South,180,8.5,8.5,54,0.00,,,0.00,WUHU216HW,2013-01-23 20:53:00,
2013-01-23 14:58:00,74.1,56.3,29.51,South,180,12.3,12.3,54,0.00,,,0.00,WUHU216HW,2013-01-23 20:58:00,
2013-01-23 15:03:00,73.9,56.1,29.51,SSW,203,8.5,12.3,54,0.00,,,0.00,WUHU216HW,2013-01-23 21:03:00,
2013-01-23 15:08:00,73.9,56.1,29.51,SE,135,0.0,9.8,54,0.00,,,0.00,WUHU216HW,2013-01-23 21:08:00,
2013-01-23 15:13:00,73.9,56.1,29.51,South,180,10.5,10.5,54,0.00,,,0.00,WUHU216HW,2013-01-23 21:13:00,
2013-01-23 15:19:00,73.7,55.9,29.51,SSE,158,9.3,13.4,54,0.00,,,0.00,WUHU216HW,2013-01-23 21:19:00,
2013-01-23 15:24:00,73.7,55.9,29.51,South,180,4.0,13.4,54,0.00,,,0.00,WUHU216HW,2013-01-23 21:24:00,
2013-01-23 15:29:00,73.7,55.9,29.51,South,180,4.9,9.3,54,0.00,,,0.00,WUHU216HW,2013-01-23 21:29:00,
2013-01-23 15:34:00,73.7,55.9,29.51,South,180,3.3,5.8,54,0.00,,,0.00,WUHU216HW,2013-01-23 21:34:00,
2013-01-23 15:39:00,73.9,56.1,29.50,South,180,6.0,6.4,54,0.00,,,0.00,WUHU216HW,2013-01-23 21:39:00,
2013-01-23 15:44:00,73.7,55.9,29.51,South,180,3.8,6.4,54,0.00,,,0.00,WUHU216HW,2013-01-23 21:44:00,
2013-01-23 15:49:00,73.7,55.9,29.51,SSE,158,5.1,6.9,54,0.00,,,0.00,WUHU216HW,2013-01-23 21:49:00,
2013-01-23 15:54:00,73.7,55.9,29.51,SSE,158,8.5,8.5,54,0.00,,,0.00,WUHU216HW,2013-01-23 21:54:00,
2013-01-23 15:59:00,73.5,55.7,29.51,South,180,5.5,8.5,54,0.00,,,0.00,WUHU216HW,2013-01-23 21:59:00,
2013-01-23 16:04:00,73.2,55.4,29.51,South,180,4.4,8.5,54,0.00,,,0.00,WUHU216HW,2013-01-23 22:04:00,
2013-01-23 16:09:00,73.2,55.4,29.51,SSW,203,3.8,7.1,54,0.00,,,0.00,WUHU216HW,2013-01-23 22:09:00,
2013-01-23 16:14:00,73.2,55.4,29.50,South,180,3.1,7.3,54,0.00,,,0.00,WUHU216HW,2013-01-23 22:14:00,
2013-01-23 16:19:00,73.0,55.2,29.50,SSE,158,6.9,7.3,54,0.00,,,0.00,WUHU216HW,2013-01-23 22:19:00,
2013-01-23 16:24:00,73.0,55.2,29.50,SW,225,0.0,6.9,54,0.00,,,0.00,WUHU216HW,2013-01-23 22:24:00,
2013-01-23 16:29:00,72.8,55.1,29.50,SSE,158,0.0,6.9,54,0.00,,,0.00,WUHU216HW,2013-01-23 22:29:00,
2013-01-23 16:34:00,72.6,54.9,29.50,ESE,113,0.0,6.4,54,0.00,,,0.00,WUHU216HW,2013-01-23 22:34:00,
2013-01-23 16:39:00,72.5,55.3,29.51,SSE,158,2.0,6.4,55,0.00,,,0.00,WUHU216HW,2013-01-23 22:39:00,
2013-01-23 16:44:00,72.3,55.1,29.50,SSW,203,8.5,8.5,55,0.00,,,0.00,WUHU216HW,2013-01-23 22:44:00,
2013-01-23 16:49:00,72.3,55.1,29.50,SSW,203,5.3,8.5,55,0.00,,,0.00,WUHU216HW,2013-01-23 22:49:00,
2013-01-23 16:54:00,72.3,55.1,29.50,SSE,158,3.5,5.3,55,0.00,,,0.00,WUHU216HW,2013-01-23 22:54:00,
2013-01-23 16:59:00,72.1,54.9,29.50,SSE,158,0.0,5.3,55,0.00,,,0.00,WUHU216HW,2013-01-23 22:59:00,
2013-01-23 17:04:00,71.9,54.8,29.49,South,180,2.6,5.1,55,0.00,,,0.00,WUHU216HW,2013-01-23 23:04:00,
2013-01-23 17:09:00,71.9,54.8,29.49,SSE,158,4.2,4.2,55,0.00,,,0.00,WUHU216HW,2013-01-23 23:09:00,
2013-01-23 17:14:00,71.7,54.6,29.49,SE,135,4.6,4.6,55,0.00,,,0.00,WUHU216HW,2013-01-23 23:14:00,
2013-01-23 17:19:00,71.4,54.8,29.49,South,180,5.5,5.5,56,0.00,,,0.00,WUHU216HW,2013-01-23 23:19:00,
2013-01-23 17:24:00,71.4,54.8,29.49,SSW,203,2.9,5.5,56,0.00,,,0.00,WUHU216HW,2013-01-23 23:24:00,
2013-01-23 17:29:00,71.4,54.8,29.50,SSE,158,1.3,5.5,56,0.00,,,0.00,WUHU216HW,2013-01-23 23:29:00,
2013-01-23 17:34:00,71.2,54.6,29.49,SSE,158,3.8,6.0,56,0.00,,,0.00,WUHU216HW,2013-01-23 23:34:00,
2013-01-23 17:39:00,70.8,54.3,29.49,SSE,158,3.5,6.0,56,0.00,,,0.00,WUHU216HW,2013-01-23 23:39:00,
2013-01-23 17:44:00,70.7,54.1,29.49,SSE,158,6.0,6.7,56,0.00,,,0.00,WUHU216HW,2013-01-23 23:44:00,
2013-01-23 17:49:00,70.5,54.0,29.49,SSE,158,3.1,6.7,56,0.00,,,0.00,WUHU216HW,2013-01-23 23:49:00,
2013-01-23 17:54:00,70.1,53.7,29.49,SSE,158,2.2,3.5,56,0.00,,,0.00,WUHU216HW,2013-01-23 23:54:00,
2013-01-23 17:59:00,69.9,53.5,29.50,SSW,203,4.6,4.6,56,0.00,,,0.00,WUHU216HW,2013-01-23 23:59:00,
2013-01-23 18:04:00,69.6,53.2,29.50,South,180,4.6,4.6,56,0.00,,,0.00,WUHU216HW,2013-01-24 00:04:00,
2013-01-23 18:09:00,69.4,53.0,29.50,SSE,158,0.0,4.6,56,0.00,,,0.00,WUHU216HW,2013-01-24 00:09:00,
2013-01-23 18:14:00,69.2,52.8,29.50,South,180,0.0,4.6,56,0.00,,,0.00,WUHU216HW,2013-01-24 00:14:00,
2013-01-23 18:19:00,68.9,53.0,29.50,South,180,1.3,1.3,57,0.00,,,0.00,WUHU216HW,2013-01-24 00:19:00,
2013-01-23 18:24:00,68.5,52.6,29.49,SSW,203,0.0,1.7,57,0.00,,,0.00,WUHU216HW,2013-01-24 00:24:00,
2013-01-23 18:29:00,68.5,52.6,29.49,SSE,158,0.0,1.7,57,0.00,,,0.00,WUHU216HW,2013-01-24 00:29:00,
2013-01-23 18:34:00,68.1,52.7,29.49,South,180,0.0,1.5,58,0.00,,,0.00,WUHU216HW,2013-01-24 00:34:00,
2013-01-23 18:39:00,67.8,52.4,29.49,South,180,0.0,1.5,58,0.00,,,0.00,WUHU216HW,2013-01-24 00:39:00,
2013-01-23 18:44:00,67.8,52.4,29.50,SSE,158,0.0,2.9,58,0.00,,,0.00,WUHU216HW,2013-01-24 00:44:00,
2013-01-23 18:49:00,67.6,52.3,29.49,SSE,158,0.0,2.9,58,0.00,,,0.00,WUHU216HW,2013-01-24 00:49:00,
2013-01-23 18:54:00,67.2,52.4,29.49,SSE,158,0.0,0.0,59,0.00,,,0.00,WUHU216HW,2013-01-24 00:54:00,
2013-01-23 18:59:00,66.9,52.1,29.50,South,180,0.0,0.0,59,0.00,,,0.00,WUHU216HW,2013-01-24 00:59:00,
2013-01-23 19:04:00,66.5,51.8,29.50,SSE,158,0.0,0.0,59,0.00,,,0.00,WUHU216HW,2013-01-24 01:04:00,
2013-01-23 19:09:00,66.3,52.1,29.50,SSE,158,0.0,0.0,60,0.00,,,0.00,WUHU216HW,2013-01-24 01:09:00,
2013-01-23 19:14:00,66.0,51.8,29.50,South,180,0.0,0.0,60,0.00,,,0.00,WUHU216HW,2013-01-24 01:14:00,
2013-01-23 19:19:00,66.0,51.8,29.50,South,180,0.0,0.0,60,0.00,,,0.00,WUHU216HW,2013-01-24 01:19:00,
2013-01-23 19:24:00,65.8,51.6,29.50,South,180,0.0,0.0,60,0.00,,,0.00,WUHU216HW,2013-01-24 01:24:00,
2013-01-23 19:29:00,65.4,51.2,29.50,ENE,68,0.0,0.0,60,0.00,,,0.00,WUHU216HW,2013-01-24 01:29:00,
2013-01-23 19:34:00,65.1,51.3,29.50,ENE,68,0.0,0.0,61,0.00,,,0.00,WUHU216HW,2013-01-24 01:34:00,
2013-01-23 19:39:00,64.7,51.3,29.50,ENE,68,0.0,0.0,62,0.00,,,0.00,WUHU216HW,2013-01-24 01:39:00,
2013-01-23 19:44:00,64.4,51.0,29.50,ENE,68,0.0,0.0,62,0.00,,,0.00,WUHU216HW,2013-01-24 01:44:00,
2013-01-23 19:49:00,64.0,51.1,29.50,East,90,0.0,0.0,63,0.00,,,0.00,WUHU216HW,2013-01-24 01:49:00,
2013-01-23 19:54:00,64.0,51.1,29.50,East,90,0.0,0.0,63,0.00,,,0.00,WUHU216HW,2013-01-24 01:54:00,
2013-01-23 19:59:00,63.6,51.2,29.50,NE,45,0.0,0.0,64,0.00,,,0.00,WUHU216HW,2013-01-24 01:59:00,
2013-01-23 20:04:00,63.5,51.0,29.50,ENE,68,0.0,0.0,64,0.00,,,0.00,WUHU216HW,2013-01-24 02:04:00,
2013-01-23 20:09:00,63.5,51.0,29.50,ENE,68,0.0,0.0,64,0.00,,,0.00,WUHU216HW,2013-01-24 02:09:00,
2013-01-23 20:14:00,63.3,51.3,29.51,ENE,68,0.0,0.0,65,0.00,,,0.00,WUHU216HW,2013-01-24 02:14:00,
2013-01-23 20:19:00,63.1,51.1,29.51,ENE,68,0.0,0.0,65,0.00,,,0.00,WUHU216HW,2013-01-24 02:19:00,
2013-01-23 20:24:00,63.1,51.5,29.51,ENE,68,0.0,0.0,66,0.00,,,0.00,WUHU216HW,2013-01-24 02:24:00,
2013-01-23 20:29:00,62.9,51.3,29.51,ENE,68,0.0,0.0,66,0.00,,,0.00,WUHU216HW,2013-01-24 02:29:00,
2013-01-23 20:34:00,62.7,51.2,29.51,East,90,0.0,0.0,66,0.00,,,0.00,WUHU216HW,2013-01-24 02:34:00,
2013-01-23 20:39:00,62.6,51.0,29.51,East,90,0.0,0.0,66,0.00,,,0.00,WUHU216HW,2013-01-24 02:39:00,
2013-01-23 20:44:00,62.4,51.2,29.51,ENE,68,0.0,0.0,67,0.00,,,0.00,WUHU216HW,2013-01-24 02:44:00,
2013-01-23 20:49:00,62.2,51.1,29.52,ENE,68,0.0,0.0,67,0.00,,,0.00,WUHU216HW,2013-01-24 02:49:00,
2013-01-23 20:54:00,61.8,50.8,29.52,ENE,68,0.0,0.0,67,0.00,,,0.00,WUHU216HW,2013-01-24 02:54:00,
2013-01-23 20:59:00,61.7,51.0,29.52,NE,45,0.0,0.0,68,0.00,,,0.00,WUHU216HW,2013-01-24 02:59:00,
2013-01-23 21:04:00,61.5,50.9,29.52,West,270,0.0,0.0,68,0.00,,,0.00,WUHU216HW,2013-01-24 03:04:00,
2013-01-23 21:09:00,61.1,50.5,29.52,West,270,0.0,0.0,68,0.00,,,0.00,WUHU216HW,2013-01-24 03:09:00,
2013-01-23 21:14:00,60.9,50.4,29.52,West,270,0.0,0.0,68,0.00,,,0.00,WUHU216HW,2013-01-24 03:14:00,
2013-01-23 21:19:00,60.6,50.4,29.52,West,270,0.0,0.0,69,0.00,,,0.00,WUHU216HW,2013-01-24 03:19:00,
2013-01-23 21:24:00,60.4,50.3,29.52,West,270,0.0,0.0,69,0.00,,,0.00,WUHU216HW,2013-01-24 03:24:00,
2013-01-23 21:29:00,60.2,50.5,29.52,West,270,0.0,0.0,70,0.00,,,0.00,WUHU216HW,2013-01-24 03:29:00,
2013-01-23 21:34:00,60.0,50.3,29.52,West,270,0.0,0.0,70,0.00,,,0.00,WUHU216HW,2013-01-24 03:34:00,
2013-01-23 21:39:00,59.7,50.0,29.53,West,270,0.0,0.0,70,0.00,,,0.00,WUHU216HW,2013-01-24 03:39:00,
2013-01-23 21:44:00,59.5,49.8,29.52,West,270,0.0,0.0,70,0.00,,,0.00,WUHU216HW,2013-01-24 03:44:00,
2013-01-23 21:49:00,59.3,50.0,29.52,West,270,0.0,0.0,71,0.00,,,0.00,WUHU216HW,2013-01-24 03:49:00,
2013-01-23 21:54:00,59.1,49.8,29.52,West,270,0.0,0.0,71,0.00,,,0.00,WUHU216HW,2013-01-24 03:54:00,
2013-01-23 21:59:00,58.8,49.4,29.52,West,270,0.0,0.0,71,0.00,,,0.00,WUHU216HW,2013-01-24 03:59:00,
2013-01-23 22:04:00,58.8,49.8,29.52,SSE,158,0.0,0.0,72,0.00,,,0.00,WUHU216HW,2013-01-24 04:04:00,
2013-01-23 22:09:00,58.4,49.4,29.51,SSE,158,0.0,0.0,72,0.00,,,0.00,WUHU216HW,2013-01-24 04:09:00,
2013-01-23 22:14:00,58.2,49.6,29.51,SSE,158,0.0,0.0,73,0.00,,,0.00,WUHU216HW,2013-01-24 04:14:00,
2013-01-23 22:19:00,58.1,49.8,29.51,East,90,0.0,0.0,74,0.00,,,0.00,WUHU216HW,2013-01-24 04:19:00,
2013-01-23 22:24:00,57.9,49.6,29.52,ENE,68,0.0,0.0,74,0.00,,,0.00,WUHU216HW,2013-01-24 04:24:00,
2013-01-23 22:29:00,57.9,50.0,29.52,ENE,68,0.0,0.0,75,0.00,,,0.00,WUHU216HW,2013-01-24 04:29:00,
2013-01-23 22:34:00,57.7,49.8,29.52,ENE,68,0.0,0.0,75,0.00,,,0.00,WUHU216HW,2013-01-24 04:34:00,
2013-01-23 22:39:00,57.5,49.6,29.52,NE,45,0.0,0.0,75,0.00,,,0.00,WUHU216HW,2013-01-24 04:39:00,
2013-01-23 22:44:00,57.3,49.4,29.52,NE,45,0.0,0.0,75,0.00,,,0.00,WUHU216HW,2013-01-24 04:44:00,
2013-01-23 22:49:00,57.0,48.7,29.51,NE,45,0.0,0.0,74,0.00,,,0.00,WUHU216HW,2013-01-24 04:49:00,
2013-01-23 22:54:00,57.0,48.7,29.52,NE,45,0.0,0.0,74,0.00,,,0.00,WUHU216HW,2013-01-24 04:54:00,
2013-01-23 22:59:00,56.8,48.5,29.52,NE,45,0.0,0.0,74,0.00,,,0.00,WUHU216HW,2013-01-24 04:59:00,
2013-01-23 23:04:00,56.4,48.2,29.52,North,0,0.0,0.0,74,0.00,,,0.00,WUHU216HW,2013-01-24 05:04:00,
2013-01-23 23:09:00,56.4,48.2,29.52,NNW,338,0.0,0.0,74,0.00,,,0.00,WUHU216HW,2013-01-24 05:09:00,
2013-01-23 23:14:00,56.3,48.4,29.52,NNW,338,0.0,0.0,75,0.00,,,0.00,WUHU216HW,2013-01-24 05:14:00,
2013-01-23 23:19:00,56.1,48.2,29.52,NNW,338,0.0,0.0,75,0.00,,,0.00,WUHU216HW,2013-01-24 05:19:00,
2013-01-23 23:24:00,56.1,48.2,29.52,NNW,338,0.0,0.0,75,0.00,,,0.00,WUHU216HW,2013-01-24 05:24:00,
2013-01-23 23:29:00,55.9,48.0,29.52,WNW,293,0.0,0.0,75,0.00,,,0.00,WUHU216HW,2013-01-24 05:29:00,
2013-01-23 23:34:00,55.9,48.0,29.52,WNW,293,0.0,0.0,75,0.00,,,0.00,WUHU216HW,2013-01-24 05:34:00,
2013-01-23 23:39:00,55.7,47.9,29.52,WNW,293,0.0,0.0,75,0.00,,,0.00,WUHU216HW,2013-01-24 05:39:00,
2013-01-23 23:44:00,55.5,47.7,29.52,WNW,293,0.0,0.0,75,0.00,,,0.00,WUHU216HW,2013-01-24 05:44:00,
2013-01-23 23:49:00,55.4,47.5,29.51,WNW,293,0.0,0.0,75,0.00,,,0.00,WUHU216HW,2013-01-24 05:49:00,
2013-01-23 23:54:00,55.2,47.7,29.52,ENE,68,0.0,0.0,76,0.00,,,0.00,WUHU216HW,2013-01-24 05:54:00,
2013-01-23 23:59:00,55.0,47.5,29.52,East,90,0.0,0.0,76,0.00,,,0.00,WUHU216HW,2013-01-24 05:59:00,